Find Starlink 11113

NORAD ID: 59947 Int'l Des: 2024-107 Owner: SPXS Country: US Constellation: starlink operational
LEOCIRCULAR

リアルタイム位置

3D地球を読み込み中...

Starlink 11113について

説明を読み込み中...

次回通過

Passes for default location (London). Set your location on the main map for personalized predictions.

高度履歴

Loading altitude history...

軌道要素

1 59947U 24107C 26133.14009101 .00000333 00000-0 76075-5 0 9998
2 59947 53.1587 293.1690 0001126 90.7746 269.3401 15.69707841112274
Epoch: May 13, 2026 • Age: 16 hours

現在のステータス

高度 375.8 km
速度 7.68 km/s
衛星直下点 -45.40°S, 7.76°W
打ち上げ日 Jun 5, 2024
運用期間 1.9 years
タイプ internet

技術仕様

分類 Payload
質量 960.00 kg
乾燥質量 910.00 kg
総質量 960.00 kg
長さ 0.30 m
直径 4.10 m
スパン 29.00 m
形状 Box + pan
製造者 SPXS
バスタイプ Starlink V2MD
フェーズステータス In Orbit
所有者/国 SPXS/US

Most Searched